Zurück zum Katalog

AO-91

AktivAmateurfunkSSO
NORAD 43017·PAYLOAD·🇺🇸 United States

Gestartet Nov 18, 2017 von Vandenberg Space Force Base

Loading…

Nächste Überflüge (nächste 24 Stunden)

TLE

AktuellSource: AMSAT

Epoche: Sep 14, 2026, 09:48 UTC

1 43017U 17073E   26257.40839724  .00006482  00000-0  27555-3 0  9999
2 43017  97.4553 122.8013 0148012  20.8764 339.8426 15.13898921478887

Verfolge AO-91 in Echtzeit mit AllMySat

Download on the App Store